Regional Weather Roundup
Issued by NWS

Home | Current Version | Previous Version | Graphics & Text | Print | Product List | Glossary On
Versions: 1 2 3 4 5 6 7 8 9 10 11 12 13 14 15 16 17 18 19 20 21 22 23 24 25 26 27 28 29 30 31 32 33 34 35 36 37 38 39 40 41 42 43 44 45 46 47 48 49 50
877
ASUS45 KPSR 281510
RWRAZ

ARIZONA REGIONAL HOURLY WEATHER ROUNDUP
NATIONAL WEATHER SERVICE TUCSON AZ
800 AM MST SUN MAY 28 2017

NOTE: FAIR INDICATES FEW OR NO CLOUDS BELOW 12,000 FEET WITH NO
SIGNIFICANT WEATHER AND/OR OBSTRUCTIONS TO VISIBILITY.

AZZ001>003-036-281600-
NORTHWEST ARIZONA

CITY           SKY/WX    TMP DP  RH WIND       PRES   REMARKS
BULLHEAD CITY  SUNNY     86  28  12 N22G32    29.91S
KINGMAN        SUNNY     74  25  16 N7        30.09R
$$

AZZ004>008-015-016-018-281600-
NORTH CENTRAL ARIZONA

CITY           SKY/WX    TMP DP  RH WIND       PRES   REMARKS
GRAND CANYON   SUNNY     63  22  20 NE15G22   30.29R
WILLIAMS       SUNNY     64  21  19 E10G20    30.26R
PRESCOTT       SUNNY     67  26  21 CALM      30.16R
FLAGSTAFF      SUNNY     61  21  21 E14G21    30.29R
PAYSON         SUNNY     72  23  16 VRB6      30.18S
PAGE           SUNNY     69  25  19 VRB3      30.21R
$$

AZZ009>014-017-281600-
NORTHEAST ARIZONA

CITY           SKY/WX    TMP DP  RH WIND       PRES   REMARKS
WINSLOW        SUNNY     63  23  21 CALM      30.22R
SAINT JOHNS    SUNNY     65  20  17 NE6       30.22R
WINDOW ROCK    SUNNY     58  24  27 CALM      30.30S
SHOW LOW       SUNNY     64  19  17 NE16      30.24S
$$

AZZ023-281600-
GREATER PHOENIX AREA

CITY           SKY/WX    TMP DP  RH WIND       PRES   REMARKS
PHOENIX        MOSUNNY   79  31  17 SE7       29.90R
BUCKEYE        SUNNY     79  41  25 CALM      29.92R
GLENDALE       MOSUNNY   81  32  17 CALM      29.93R
LUKE AFB       SUNNY     79  33  18 NW3       29.91R
DEER VALLEY    SUNNY     79  32  18 VRB5      29.92R
SCOTTSDALE     SUNNY     77  36  22 CALM      29.94R
MESA-FALCON    SUNNY     82  30  15 SE6       29.93S
MESA-GATEWAY   SUNNY     75  32  20 SE8       29.94R
CHANDLER       SUNNY     77  37  24 CALM      29.92R
$$

AZZ027-028-281600-
SOUTHWEST MARICOPA COUNTY AND PINAL COUNTY

CITY           SKY/WX    TMP DP  RH WIND       PRES   REMARKS
CASA GRANDE    SUNNY     78  32  18 SE3       29.95R
$$

AZZ503-504-507>509-281600-
SOUTHEAST ARIZONA

CITY           SKY/WX    TMP DP  RH WIND       PRES   REMARKS
TUCSON         SUNNY     72  23  16 SE3       30.03R
DAVIS-MONTHAN  SUNNY     76  23  13 CALM      30.02R
RYAN FIELD     SUNNY     73  28  19 E6        30.01S
NOGALES        SUNNY     71  22  15 S3        30.07S
SIERRA VISTA   SUNNY     74  16  11 NE3       30.14R
DOUGLAS        SUNNY     68  13  12 CALM      30.10S
SAFFORD        SUNNY     71  18  13 S6        30.04R
$$

AZZ020-021-025-026-031-281600-
SOUTHWEST ARIZONA

CITY           SKY/WX    TMP DP  RH WIND       PRES   REMARKS
YUMA           SUNNY     76  51  41 S6        29.88R
$$

CAZ031-033-041-043-047-048-061-281600-
SOUTHERN CALIFORNIA

CITY           SKY/WX    TMP DP  RH WIND       PRES   REMARKS
DOWNTOWN L.A.  SUNNY     64  55  72 CALM      30.02S
L.A. AIRPORT   MOSUNNY   61  57  87 S5        30.03S
SAN DIEGO      PTSUNNY   62  56  80 N7        30.05R
BURBANK        SUNNY     60  49  66 CALM      30.02S
ONTARIO        SUNNY     61  50  67 CALM      30.03R
RIVERSIDE      SUNNY     60  52  74 W3        30.03R
PALM SPRINGS   SUNNY     77  50  38 CALM      29.92R
EL CENTRO NAS  SUNNY     77  36  22 CALM      29.89R
IMPERIAL       SUNNY     76  42  29 CALM      29.86S
BLYTHE         SUNNY     77  33  20 CALM      29.89S
NEEDLES        SUNNY     87  25  10 N9        29.94R
$$

NVZ020-UTZ003-281600-
SOUTHERN NEVADA-UTAH

CITY           SKY/WX    TMP DP  RH WIND       PRES   REMARKS
LAS VEGAS      SUNNY     78  25  14 CALM      30.04R
SALT LAKE CITY SUNNY     64  38  38 CALM      30.25S
$$

NMZ009-TXZ055-281600-
NEW MEXICO-WEST TEXAS

CITY           SKY/WX    TMP DP  RH WIND       PRES   REMARKS
ALBUQUERQUE    MOSUNNY   64  37  36 E18       30.28R
EL PASO        PTSUNNY   70  35  27 E3        30.14S
$$


........................KEY........................
SKY/WX - SKY CONDITION/WEATHER
TMP    - TEMPERATURE IN FAHRENHEIT
DP     - DEWPOINT IN FAHRENHEIT
RH     - RELATIVE HUMIDITY IN PERCENT
WIND   - DIRECTION AND SPEED IN MILES PER HOUR (MPH)
VRB    - VARIABLE WIND DIRECTION
PRES   - MEAN SEA LEVEL PRESSURE IN INCHES OF MERCURY
         F - FALLING PRESSURE   R - RISING PRESSURE
         S - STEADY PRESSURE
VSB    - VISIBILITY IN MILES
HX     - HEAT INDEX IN FAHRENHEIT
WCI    - WIND CHILL INDEX IN FAHRENHEIT
TC     - TEMPERATURE IN CELSIUS WHICH IS ALSO KNOWN AS
         TEMPERATURE IN CENTIGRADE
AFB    - AIR FORCE BASE
         LUKE AFB IS LUKE AIR FORCE BASE
         DAVIS-MONTHAN IS DAVIS-MONTHAN AIR FORCE BASE
NAS    - NAVAL AIR STATION
         EL CENTRO NAS IS EL CENTRO NAVAL AIR STATION
N/A    - NOT AVAILABLE





USA.gov is the U.S. government's official web portal to all federal, state and local government web resources and services.